Location: Newark
(58.6000°N, 7.8338°E)
Time: 01:01:00
(UTC+00:00)

ISS - Pass Details

Date: 01 September 2019
Orbit: 411 x 421 km, 51.6° (Epoch: 17 October)

Event Time Altitude Azimuth Distance (km) Brightness Sun altitude
Exits shadow 03:32:03 - 203° (SSW) 1,901 -0.9 -7.3°
Reaches altitude 10° 03:33:34 10° 185° (S) 1,490 -1.3 -7.1°
Maximum altitude 03:35:20 14° 153° (SSE) 1,287 -1.3 -6.9°
Drops below altitude 10° 03:37:06 10° 121° (ESE) 1,497 -0.5 -6.7°
Sets 03:39:59 0° 95° (E) 2,366 1.2 -6.4°
